Location: Byhalia Creek
(34.8270°N, 89.8040°W)
Time: 08:04:14
(UTC+00:00)

Cosmos 2369 Rocket - Pass Details

Date: 22 April 2026
Orbit: 829 x 850 km, 71.0° (Epoch: 13 May)

Event Time Altitude Azimuth Distance (km) Brightness Sun altitude
Rises 03:10:07 0° 341° (NNW) 3,375 6.2 -28.5°
Reaches altitude 10° 03:12:34 10° 343° (NNW) 2,438 5.3 -28.8°
Enters shadow 03:17:17 61° 12° (NNE) 940 2.4 -29.5°
